Regional Weather Roundup
Issued by NWS

Home | Current Version | Previous Version | Text Only | Print | Product List | Glossary On
Versions: 1 2 3 4 5 6 7 8 9 10 11 12 13 14 15 16 17 18 19 20 21 22 23 24 25 26 27 28 29 30 31 32 33 34 35 36 37 38 39 40 41 42 43 44 45 46 47 48 49 50
000
ASUS44 KFWD 201010
RWRTX
NORTH TEXAS HOURLY WEATHER ROUNDUP
NATIONAL WEATHER SERVICE FORT WORTH TX
400 AM CST FRI JAN 20 2017

NOTE: "FAIR" INDICATES FEW OR NO CLOUDS BELOW 12,000 FEET WITH NO
SIGNIFICANT WEATHER AND/OR OBSTRUCTIONS TO VISIBILITY.

TXZ118-119-201100-
DALLAS/FORT WORTH METROPLEX

CITY           SKY/WX    TMP DP  RH WIND       PRES   REMARKS
DFW AIRPORT    CLEAR     50  43  77 SW13      29.59F
DALLAS LOVE    CLEAR     54  45  71 SW8       29.62S
FTW MEACHAM    CLEAR     53  36  52 SW7       29.60F
DAL-EXECUTIVE  CLEAR     55  41  59 SW8       29.62S
FTW-ALLIANCE   PTCLDY    50  37  61 SW7       29.60S
FTW-NAS-JRB    CLEAR     54  37  52 SW10      29.62S
FTW-SPINKS     CLEAR     50  39  65 S7        29.65R
ARLINGTON      CLEAR     51  41  68 S6        29.62F
GRAND PRAIRIE  CLEAR     50  42  74 S5        29.64S
ADDISON        CLEAR     53  47  82 S5        29.63S
MESQUITE       CLEAR     49  48  96 S7        29.63S
LANCASTER      CLEAR     51  45  78 S3        29.64F
$$

TXZ091>094-102>105-117-120-121-131>134-201100-
NORTH CENTRAL TEXAS

CITY           SKY/WX    TMP DP  RH WIND       PRES   REMARKS
SHRMAN/DENISON CLEAR     52  47  82 S12       29.58F
GAINESVILLE    CLEAR     43  39  85 S3        29.59S
BOWIE          CLEAR     55  37  49 SW13      29.58S
BRIDGEPORT     CLEAR     53  37  56 SW8       29.62R
DECATUR        CLEAR     51  34  52 SW8       29.60S
DENTON         CLEAR     46  39  76 S7        29.60S
MCKINNEY       CLEAR     48  47  96 S8        29.61R
BONHAM         CLEAR     50  48  93 S12       29.60F
GREENVILLE     CLEAR     54  50  87 SW8       29.62F
ROCKWALL       CLEAR     52  50  93 S12       29.62S
TERRELL        CLEAR     53  49  86 S9        29.64S
WAXAHACHIE     CLEAR     53  44  72 SW7       29.65S
CLEBURNE       CLEAR     48  41  76 SE6       29.66R
GRANBURY       CLEAR     55  35  47 SW9       29.65S
$$

TXZ083>090-098>101-113>116-127>130-139>142-154-155-201100-
WESTERN NORTH TEXAS

CITY           SKY/WX    TMP DP  RH WIND       PRES   REMARKS
WICHITA FALLS  CLEAR     44  36  73 SW13      29.53F WCI  38
WF-KICKAPOO    CLEAR     50  37  62 SW7       29.56F
VERNON         CLEAR     44  33  66 SW10      29.53F WCI  38
ABILENE        CLEAR     52  33  48 SW10      29.66S
ABILENE-DYESS  CLEAR     54  30  39 SW15G21   29.65R
GRAHAM         CLEAR     48  36  61 S6        29.60S
BRECKENRIDGE   CLEAR     53  33  46 W9        29.63S
CISCO          CLEAR     54  32  43 SW14G21   29.65S
RANGER         CLEAR     50  34  53 SW8       29.65S
MINERAL WELLS  CLEAR     52  34  50 SW8       29.61R
STEPHENVILLE   CLEAR     52  33  46 SW6       29.69R
COMANCHE       CLEAR     54  33  45 W9        29.69S
BROWNWOOD      CLEAR     50  32  50 SW5       29.71R
COLEMAN        CLEAR     48  32  53 SW9       29.70S
$$

TXZ143>147-156>162-174-175-201100-
CENTRAL TEXAS

CITY           SKY/WX    TMP DP  RH WIND       PRES   REMARKS
WACO           CLEAR     50  47  89 SW10      29.70R
WACO-MCGREGOR  CLEAR     49  46  90 S6        29.70S
HILLSBORO      CLEAR     49  46  88 S8        29.67S
CORSICANA      CLEAR     55  51  86 SW10      29.69R
MEXIA          CLEAR     54  53  96 S18       29.70R
HEARNE         CLOUDY    57  57 100 S5        29.74F FOG
CAMERON        MOCLDY    56  56  97 SW12      29.73R FOG
TEMPLE         CLEAR     47  47 100 S6        29.73R
KILLEEN        CLEAR     48  42  81 S8        29.71R
KILLEEN-SKYLRK CLEAR     52  44  74 SW10      29.73R
FORT HOOD      CLEAR     48  42  80 SW6       29.69R
GATESVILLE     CLEAR     54  39  58 SW9       29.72S
HAMILTON       CLEAR     53  36  54 W13G18    29.70S
LAMPASAS       CLEAR     50  43  75 SW5       29.72R
$$

TXZ095>097-106>112-122>126-135>138-148>153-164>167-201100-
EAST TEXAS

CITY           SKY/WX    TMP DP  RH WIND       PRES   REMARKS
PARIS          CLEAR     52  48  87 SW10      29.61F
SULPHUR SPRNGS CLEAR     54  53  95 S10       29.64F
MOUNT PLEASANT CLEAR     54  54 100 S7        29.66S
GILMER         CLOUDY    56  54  95 S7G18     29.66S THUNDER
MINEOLA        CLEAR     55  54  94 S5        29.64F
TYLER          PTCLDY    56  54  93 S10       29.66S
LONGVIEW       PTCLDY    57  56  96 S12       29.67S
MARSHALL       PTCLDY    56  53  91 S8        29.70S
ATHENS         MOCLDY    54  54 100 S7        29.67R FOG
PALESTINE      CLOUDY    58  58 100 S8        29.72R FOG
JACKSONVILLE   CLOUDY    57  56  99 S12       29.72R
HENDERSON      MOCLDY    56  56 100 S6        29.71S
CENTER         PTSUNNY   60  59  96 S6        29.72S
NACOGDOCHES    CLOUDY    59  55  88 SW6       29.72S
LUFKIN         CLOUDY    59  57  93 SW6       29.73R
$$

SUPPLEMENTAL OBSERVATIONS (CENTRAL)

CITY           SKY/WX    TMP DP  RH WIND       PRES   REMARKS
CADDO GRASSLND   N/A     54  48  82 S10         N/A
MCGREGOR         N/A     48  46  93 S5          N/A
TEMPLE           N/A     52  48  87 W6          N/A
$$

SUPPLEMENTAL OBSERVATIONS (WEST)

CITY           SKY/WX    TMP DP  RH WIND       PRES   REMARKS
MILLERS CREEK    N/A     45  37  76 SW12        N/A  WCI  39
POSSUM KINGDOM   N/A     54  34  47 SW12        N/A
LBJ GRASSLAND    N/A     52  36  54 S7          N/A
GRANBURY         N/A     55  34  44 SW10        N/A
HAMBY            N/A     50  34  53 SW9G17      N/A
$$

SUPPLEMENTAL OBSERVATIONS (EAST)

CITY           SKY/WX    TMP DP  RH WIND       PRES   REMARKS
TEXARKANA        N/A     55  54  94 S5G15       N/A
LINDEN           N/A     55  54  94 SW5         N/A
LUFKIN           N/A     59  55  88 MISG        N/A
N SABINE NF      N/A     57  55  94 MISG        N/A
$$

SUPPLEMENTAL OBSERVATIONS ARE A COLLECTION OF AUTOMATED INSTRUMENTS
THAT ARE MAINTAINED BY A VARIETY OF FEDERAL AND STATE AGENCIES.
CERTAIN ELEMENTS...SUCH AS HUMIDITY VALUES AND SUSTAINED WIND
SPEEDS...MAY BE APPROXIMATED.




USA.gov is the U.S. government's official web portal to all federal, state and local government web resources and services.